Wind_Speed
34 36 45 42 38 34 31 22 31 31 15 7 18 38 37 39 29 25 25 23 16 5 13 17 21 23 23 21 20 19 20 20 18 16 14 11 7 7 7 8 9 10 12 10
31 45 41 35 32 32 31 30 30 35 27 16 13 36 38 39 27 20 24 24 19 11 14 19 21 24 24 22 21 21 20 19 18 17 12 11 10 11 12 13 12 12 13 11
42 25 36 36 35 32 36 35 35 36 19 16 17 22 38 39 34 28 29 24 19 17 11 11 24 24 22 22 21 20 18 18 18 17 15 14 14 14 14 13 12 13 15 12
38 38 22 37 38 35 39 41 34 34 22 15 14 9 36 40 42 34 34 30 28 28 23 18 13 24 27 27 24 23 22 21 19 19 18 16 15 15 12 12 12 15 13 8
32 34 37 33 45 38 42 39 36 29 20 25 29 16 26 42 45 37 31 33 30 31 29 21 20 14 11 23 25 26 24 23 22 22 21 19 18 17 17 16 13 11 11 12
32 21 25 38 29 37 38 29 29 28 25 19 38 21 29 43 42 32 31 33 33 32 32 28 20 15 16 13 18 27 28 25 25 24 23 21 19 18 19 16 13 10 11 14
33 36 22 20 37 26 29 30 10 7 9 11 34 27 34 22 34 35 38 32 33 34 34 29 25 23 18 21 17 20 25 27 26 28 27 24 21 20 19 18 14 12 15 17
30 17 41 34 35 38 42 38 15 7 3 8 24 22 42 42 32 25 37 34 33 34 33 27 31 24 21 19 18 17 21 22 22 20 25 25 23 22 20 19 15 14 17 19
27 31 22 40 39 37 34 43 41 28 12 4 17 41 52 44 28 31 36 37 33 36 36 30 27 31 22 23 21 17 18 19 19 19 18 26 25 24 22 20 18 18 21 23
29 17 32 26 31 40 41 33 27 30 11 12 8 26 23 36 46 33 29 37 40 35 37 33 25 26 28 25 22 20 18 18 18 18 19 21 24 25 24 22 20 22 26 26
50 31 23 19 37 43 47 45 35 33 31 7 3 22 36 29 27 29 33 24 27 31 38 37 37 28 28 26 26 23 23 21 22 22 20 20 22 27 27 24 21 26 28 27
27 26 45 43 32 32 44 47 45 25 26 38 33 23 8 25 47 31 28 26 28 30 40 43 37 32 30 27 32 29 24 24 25 25 24 24 21 29 29 26 24 28 30 28
13 12 14 19 39 44 35 45 51 53 43 42 22 9 25 40 20 28 39 29 27 28 27 44 45 41 33 33 34 32 29 28 27 25 29 27 27 28 30 28 24 31 31 29
13 13 15 17 16 23 37 43 46 55 42 43 48 33 23 21 23 32 31 29 23 17 19 27 40 39 33 31 32 31 32 32 30 30 32 32 31 27 30 29 27 30 30 29
19 19 20 23 27 36 32 31 52 53 57 43 41 44 42 42 28 14 16 26 32 26 22 24 33 38 31 33 36 34 33 33 30 32 35 37 33 30 30 33 32 32 32 31
22 19 24 31 25 25 34 42 41 65 59 49 43 41 31 41 40 43 43 30 24 28 23 23 36 40 35 31 35 40 37 34 33 33 36 34 35 34 32 34 37 36 35 33
26 24 24 15 14 21 32 62 48 41 56 49 54 46 40 44 38 30 30 36 35 24 26 25 36 47 34 29 40 39 40 39 37 36 35 32 32 36 36 35 39 40 39 38
26 24 23 15 11 8 34 41 46 48 40 41 44 36 36 44 36 33 28 28 38 31 32 28 33 36 36 34 28 36 37 41 37 37 38 32 25 30 37 40 38 43 43 42
23 27 20 7 9 25 32 20 39 34 50 37 46 37 24 31 41 39 32 28 26 27 27 32 33 38 39 33 30 38 44 39 44 40 37 34 31 30 32 40 42 42 46 47
31 30 30 12 6 7 12 25 28 37 44 47 39 36 23 20 34 44 31 27 27 30 23 29 36 33 26 26 31 30 33 39 41 45 38 35 33 31 35 37 37 44 44 47
30 33 31 25 12 18 21 13 19 24 44 41 37 39 39 37 29 30 39 33 32 28 31 26 22 28 29 25 30 30 29 36 36 36 38 40 37 37 36 36 42 41 44 49
25 26 28 34 19 15 12 12 7 17 34 36 44 34 41 35 29 28 34 35 30 23 26 30 33 32 28 28 33 33 37 35 36 39 39 42 40 40 33 31 42 43 45 45
29 28 31 27 30 32 18 14 11 19 27 23 27 30 31 30 26 19 27 31 30 26 24 24 24 29 30 33 34 36 35 40 42 42 43 44 44 41 40 38 33 38 43 50
25 32 31 34 36 41 19 8 11 25 29 29 24 23 25 26 26 25 24 24 23 24 24 24 24 26 28 32 34 37 42 38 39 43 43 43 43 46 49 47 46 44 46 50
28 31 41 40 31 39 39 17 16 22 28 30 31 29 28 24 26 23 22 20 21 22 23 25 28 29 30 32 35 39 40 39 38 39 42 45 49 49 48 47 50 53 57 51
30 33 52 39 33 28 46 18 13 19 27 28 29 30 27 23 20 16 14 13 12 13 16 19 21 25 28 34 38 42 45 46 43 46 48 49 51 54 58 58 61 58 59 53
Wind_Direction
192 199 205 206 210 219 224 230 234 239 239 290 250 223 222 220 212 222 235 236 223 244 200 191 191 197 202 204 207 204 205 208 219 223 221 231 240 244 238 239 239 235 229 230
198 213 207 207 211 218 225 233 230 239 247 249 280 228 232 227 230 259 240 234 237 227 209 208 197 206 211 209 206 208 208 211 221 232 227 229 234 239 237 238 239 240 239 231
204 216 205 209 211 217 222 227 229 236 242 232 278 246 220 230 223 230 233 245 252 237 250 235 218 211 213 212 211 209 210 216 226 233 235 234 235 240 246 250 255 263 253 237
218 209 212 214 219 216 226 221 231 243 264 278 282 232 215 217 216 224 230 230 238 240 237 246 240 228 222 213 211 212 214 219 225 231 236 241 247 250 248 244 246 250 235 191
214 219 210 217 221 216 229 223 230 246 266 269 263 255 231 218 220 221 239 238 237 244 248 246 246 243 236 227 217 216 218 225 229 231 235 236 238 243 241 236 232 220 197 173
236 238 223 223 219 222 224 228 235 249 256 252 252 238 255 211 221 235 252 251 248 249 253 249 240 248 251 234 223 227 226 226 229 233 239 240 240 241 238 234 223 210 192 177
229 226 214 212 221 214 222 222 234 250 222 234 245 248 242 244 239 247 255 255 252 251 246 240 231 233 240 243 231 223 221 220 226 232 236 236 238 238 233 227 216 207 193 185
206 220 223 214 222 214 220 215 196 199 208 236 240 238 243 237 234 251 248 253 252 248 234 231 228 222 223 228 238 231 227 220 219 230 235 235 234 235 225 221 211 201 193 183
207 225 227 224 214 211 214 220 225 241 260 297 222 244 253 245 236 237 244 236 243 242 234 229 223 225 220 221 222 222 224 223 221 228 242 236 233 227 220 218 210 198 191 186
227 230 231 234 220 220 226 223 211 220 222 239 241 233 230 233 239 233 243 248 246 248 241 235 226 225 217 218 224 224 226 232 234 229 236 240 229 223 216 220 214 199 192 190
226 231 221 200 214 213 215 225 226 228 225 216 215 251 244 233 229 237 238 250 254 251 246 242 226 229 230 229 229 226 223 226 230 223 226 239 225 217 213 218 215 201 196 194
214 234 239 232 231 230 225 220 223 221 216 229 237 232 6 242 236 226 226 234 270 268 255 249 231 234 234 236 239 229 225 226 228 231 229 232 231 216 213 214 212 203 197 195
232 221 251 243 238 234 234 226 227 232 236 235 229 231 252 245 237 231 235 247 253 268 252 245 234 231 238 242 248 244 237 231 232 232 232 228 232 221 215 213 211 204 201 200
273 262 252 255 235 229 229 228 226 227 228 234 235 236 243 244 244 235 223 231 245 254 250 243 226 229 241 250 239 228 229 232 236 234 235 231 231 228 217 216 212 209 207 210
292 288 281 267 261 249 253 239 231 226 229 227 239 238 238 245 246 232 245 247 246 253 250 226 221 223 239 247 228 223 225 226 232 234 233 231 231 232 221 218 217 215 214 215
276 292 307 289 282 267 264 247 235 232 232 236 243 243 243 249 256 255 250 247 239 241 241 241 223 228 237 240 242 235 231 233 233 232 230 227 228 229 226 221 219 218 219 223
274 285 294 299 290 263 254 234 238 243 236 235 237 244 241 245 250 257 253 247 236 240 233 232 223 227 228 247 242 242 237 229 235 234 231 229 229 229 228 226 221 219 221 223
265 265 268 289 295 225 249 245 245 246 241 237 242 244 250 245 243 254 249 242 232 243 232 221 213 228 228 241 250 234 227 229 226 227 228 225 226 232 231 229 228 225 226 228
246 237 235 239 250 265 248 259 233 240 239 250 241 243 244 229 242 247 244 236 230 237 244 229 221 229 235 235 243 230 228 229 225 227 228 225 229 232 235 235 233 230 231 232
232 229 222 209 236 241 214 230 227 226 240 236 228 223 219 218 233 235 235 236 242 246 241 234 221 222 225 227 226 226 227 229 232 231 234 237 240 240 241 243 240 237 236 235
205 214 210 232 251 272 263 243 223 207 233 232 232 235 224 237 243 236 234 238 236 243 242 238 227 232 236 240 225 230 234 217 236 233 240 244 244 244 239 238 240 240 239 239
196 189 199 216 218 248 260 249 207 203 216 221 230 233 229 234 239 238 227 236 231 230 233 237 243 245 244 246 240 241 240 237 233 225 240 230 239 237 235 235 237 236 239 241
246 212 189 201 208 223 253 241 232 191 181 173 203 198 208 217 223 226 223 226 233 232 231 234 230 235 240 239 240 244 244 245 249 243 244 245 241 238 245 246 251 240 242 240
235 221 221 200 217 214 234 203 168 178 172 173 194 183 187 197 203 208 206 204 205 203 207 212 218 225 228 237 244 240 240 243 243 246 242 243 248 248 249 250 243 243 238 238
227 217 207 206 208 222 222 172 167 169 175 175 175 178 174 180 184 188 196 208 217 224 228 231 231 228 227 229 234 241 247 249 250 248 251 255 251 246 243 245 247 246 246 241
231 214 207 211 204 204 200 234 188 177 178 171 164 163 167 168 178 183 196 208 222 233 241 248 254 257 259 260 257 252 251 251 248 250 251 250 252 250 251 249 248 249 245 242
Height
3111 3111 3106 3115 3123 3129 3133 3135 3138 3139 3142 3143 3141 3143 3142 3146 3151 3153 3155 3157 3159 3162 3166 3169 3172 3175 3177 3179 3182 3185 3188 3191 3192 3194 3195 3196 3198 3199 3200 3202 3203 3205 3206 3207
3108 3099 3108 3117 3122 3125 3128 3131 3131 3134 3138 3142 3141 3141 3141 3143 3143 3146 3148 3150 3154 3159 3162 3165 3168 3171 3174 3177 3179 3182 3185 3188 3190 3192 3193 3194 3195 3196 3198 3199 3201 3202 3204 3204
3095 3100 3108 3112 3115 3119 3121 3124 3128 3131 3135 3138 3137 3136 3136 3140 3145 3147 3149 3151 3153 3155 3157 3162 3164 3166 3171 3174 3177 3180 3183 3185 3187 3189 3190 3191 3191 3193 3195 3197 3198 3200 3201 3202
3095 3100 3102 3106 3108 3114 3115 3120 3126 3127 3131 3132 3133 3133 3131 3135 3137 3141 3143 3146 3148 3152 3156 3158 3161 3163 3166 3169 3173 3176 3179 3181 3184 3185 3187 3189 3190 3192 3194 3195 3196 3197 3198 3200
3084 3089 3095 3097 3098 3109 3109 3118 3122 3125 3127 3129 3129 3132 3126 3129 3132 3134 3136 3140 3144 3146 3151 3155 3157 3159 3162 3166 3169 3172 3175 3177 3180 3182 3184 3186 3187 3189 3191 3192 3193 3195 3197 3198
3084 3088 3091 3091 3098 3104 3111 3116 3120 3122 3123 3119 3118 3126 3119 3119 3121 3127 3131 3134 3138 3142 3145 3150 3153 3155 3158 3162 3164 3167 3170 3172 3175 3178 3181 3183 3185 3186 3187 3188 3191 3193 3195 3197
3078 3080 3086 3089 3095 3101 3105 3112 3116 3116 3114 3105 3112 3114 3110 3115 3119 3122 3124 3126 3131 3136 3140 3144 3148 3149 3152 3155 3159 3161 3163 3166 3170 3173 3176 3179 3181 3183 3184 3185 3188 3190 3193 3195
3070 3074 3075 3080 3082 3089 3094 3099 3098 3108 3106 3102 3107 3094 3092 3108 3116 3116 3119 3120 3125 3130 3134 3138 3142 3144 3147 3151 3154 3158 3159 3162 3164 3168 3171 3174 3177 3179 3181 3183 3185 3188 3191 3194
3063 3064 3066 3070 3076 3084 3088 3089 3096 3098 3099 3100 3093 3090 3094 3102 3108 3112 3114 3118 3121 3124 3128 3132 3134 3138 3142 3146 3149 3153 3156 3158 3160 3163 3167 3169 3173 3175 3177 3180 3183 3184 3188 3191
3058 3058 3058 3065 3072 3077 3078 3087 3092 3092 3096 3096 3085 3081 3081 3090 3098 3104 3107 3111 3115 3117 3121 3125 3129 3132 3136 3141 3145 3149 3153 3155 3158 3160 3163 3165 3168 3171 3174 3176 3179 3182 3185 3188
3051 3052 3054 3058 3058 3060 3069 3071 3077 3080 3082 3083 3085 3069 3079 3087 3092 3098 3102 3105 3107 3110 3112 3116 3122 3126 3131 3135 3139 3143 3148 3152 3155 3156 3159 3161 3163 3166 3168 3172 3175 3179 3181 3184
3040 3039 3042 3045 3053 3058 3061 3063 3068 3070 3069 3067 3070 3065 3073 3076 3085 3092 3095 3099 3101 3103 3105 3108 3117 3121 3126 3128 3131 3137 3142 3146 3149 3154 3155 3157 3159 3161 3163 3167 3171 3175 3178 3181
3032 3033 3034 3038 3045 3049 3049 3053 3058 3061 3063 3055 3061 3060 3069 3077 3081 3084 3090 3093 3095 3096 3095 3099 3110 3115 3119 3122 3125 3129 3135 3140 3145 3148 3150 3151 3153 3155 3159 3163 3167 3170 3174 3177
3029 3028 3031 3031 3037 3040 3041 3043 3046 3049 3045 3048 3044 3059 3062 3067 3072 3078 3081 3086 3088 3089 3089 3093 3100 3107 3112 3115 3118 3122 3128 3134 3138 3142 3144 3145 3147 3150 3154 3158 3162 3166 3170 3172
3026 3023 3026 3026 3027 3026 3030 3034 3038 3030 3033 3035 3046 3050 3058 3062 3068 3072 3077 3080 3081 3081 3084 3087 3093 3101 3106 3110 3113 3117 3120 3126 3131 3135 3137 3138 3142 3146 3149 3152 3155 3160 3163 3166
3021 3018 3018 3015 3022 3025 3021 3021 3017 3017 3026 3032 3039 3041 3051 3058 3062 3064 3070 3072 3073 3075 3077 3081 3087 3093 3100 3105 3108 3112 3115 3119 3124 3128 3130 3132 3135 3139 3142 3145 3148 3152 3156 3159
3016 3017 3017 3010 3017 3017 3014 2991 3010 3016 3020 3025 3026 3034 3046 3051 3054 3056 3058 3062 3066 3069 3072 3074 3079 3086 3093 3096 3101 3105 3109 3112 3116 3121 3125 3126 3129 3132 3135 3138 3141 3144 3147 3150
3008 3014 3015 3011 3012 3010 2984 3002 3008 3011 3015 3019 3024 3032 3036 3043 3046 3050 3052 3053 3058 3063 3065 3069 3073 3080 3086 3091 3093 3097 3101 3104 3109 3114 3117 3120 3122 3125 3128 3130 3133 3136 3138 3140
3001 3006 3009 3010 3005 2992 2989 3000 3004 3003 3006 3015 3019 3026 3029 3035 3038 3038 3045 3048 3053 3057 3060 3064 3068 3075 3080 3083 3087 3089 3091 3095 3101 3105 3109 3114 3116 3118 3120 3121 3125 3127 3129 3131
2991 2996 3003 3003 2999 2991 2983 2989 2989 2994 2991 3003 3009 3016 3023 3026 3024 3030 3038 3044 3048 3051 3055 3058 3064 3070 3073 3077 3080 3082 3085 3088 3093 3098 3102 3106 3109 3111 3112 3115 3116 3118 3120 3122
2978 2985 2991 2996 2994 2983 2980 2978 2981 2986 2981 2998 3003 3010 3016 3017 3020 3029 3031 3036 3042 3046 3051 3055 3059 3063 3067 3071 3074 3077 3079 3080 3085 3089 3095 3098 3100 3101 3103 3105 3106 3108 3110 3112
2972 2975 2981 2990 2989 2985 2976 2976 2976 2978 2978 2986 2993 3000 3007 3013 3018 3020 3025 3031 3037 3041 3046 3050 3054 3057 3062 3064 3067 3070 3072 3076 3080 3082 3085 3087 3090 3092 3093 3093 3095 3096 3099 3101
2967 2963 2961 2975 2973 2978 2974 2972 2969 2970 2975 2980 2987 2994 3000 3008 3013 3016 3021 3027 3032 3036 3040 3044 3048 3051 3054 3056 3059 3061 3065 3070 3072 3072 3074 3078 3080 3081 3081 3082 3084 3085 3085 3087
2956 2959 2960 2968 2968 2967 2971 2969 2967 2970 2976 2977 2984 2990 2996 3001 3007 3012 3017 3022 3026 3031 3034 3038 3042 3045 3048 3050 3052 3054 3056 3058 3062 3064 3067 3069 3069 3071 3071 3073 3072 3072 3072 3073
2948 2952 2953 2958 2958 2963 2968 2966 2969 2972 2975 2977 2979 2986 2992 2999 3003 3008 3013 3018 3022 3025 3028 3032 3035 3037 3040 3042 3043 3045 3046 3048 3051 3053 3056 3058 3058 3059 3059 3059 3061 3058 3056 3057
2937 2939 2944 2946 2953 2956 2963 2968 2971 2973 2976 2977 2978 2982 2988 2994 2999 3004 3008 3013 3017 3019 3022 3025 3027 3029 3031 3034 3035 3035 3036 3037 3039 3040 3041 3041 3045 3048 3049 3047 3046 3045 3044 3043